Погода в Нова-Игуасу

Бразилия     22˚51′32″S   43˚39′55″W
темп.,
°C
ветер,
м/с
пор.,
м/с
влажн.,
%
обл.,
%
осадки,
мм/ч
давл.,
гПа
погр.,
м
17 января, вс
вс1700:00+22˚ссз2118785 0.0 1012441
03:00+22˚ссз3128793 0.0 1011573
06:00+21˚ссз31188100 0.0 1012511
09:00+26˚с497299 0.0 1013859
12:00+30˚ссв576344 0.0 10121288
15:00+31˚с476570 0.5 10091303
18:00+26˚с3108113 0.8 1010559
21:00+23˚ссз278131 0.8 1012255
18 января, пн
пн1800:00+23˚ссз3117865 0.0 1013477
03:00+22˚ссз3127882 0.0 1011509
06:00+21˚ссз3118194 0.0 1012484
09:00+26˚с5106993 0.0 1012792
12:00+31˚с585746 0.0 10121263
15:00+32˚св465523 0.0 10101513
18:00+28˚ссз12730 0.0 101168
21:00+24˚сз22743 0.0 101328
19 января, вт
вт1900:00+22˚сз22778 0.0 101335
03:00+21˚сз23844 0.0 101265
06:00+20˚сз23880 0.0 101375
09:00+27˚ссз366614 0.0 1015620
12:00+31˚с3551100 0.0 10141358
15:00+32˚всв1352100 0.0 10121296
18:00+25˚ююз2684100 0.0 1013299
21:00+22˚зюз1292100 0.0 101555
20 января, ср
ср2000:00+21˚сз1193100 0.0 101524
03:00+21˚зсз1291100 0.0 101430
06:00+22˚ссз1289100 0.0 101540
09:00+27˚с2570100 0.0 1016805
12:00+31˚ссв3555100 0.0 10141474
15:00+31˚ссв235397 0.0 10121414
18:00+25˚ююз368514 0.3 1013247
21:00+23˚юз238943 1.1 101585
21 января, чт
чт2100:00+22˚зсз119256 2.0 101527
03:00+21˚ссз129445 2.1 101527
06:00+20˚сз229534 0.0 101647
09:00+26˚ссз267467 0.0 1017650
12:00+30˚ссв355498 0.0 10161687
15:00+31˚св245069 0.0 10141920
18:00+25˚ююз368235 0.1 1015261
21:00+22˚зюз128467 0.1 101761